CAPE
2366 2567 2294 2489 2360 2282 2377 2527 2822 2663 2604 2006 2451 2277 1700 2350 2803 2990 2520 2036 2152 1834 1661 1450 1581 1554 1848 1530 1551 1722 1370 1774 1894 1604 1612 2155 2628 2738 2802 2592 2480 2394 2262 2142 2422 2376 2423 2435 2366 2451 2402 2289 2215 2127 1987 1969 1984 1876 1839 1852 1823 1826 1789 1814 1796 1852 1818 1784 1768 1642 1573 1569 1402 1489 1371 1254 1189 1280 1193 1182 1258 1297 1273 1316 1344
2280 2465 1999 2142 2512 2520 2658 2591 2698 1868 2152 1945 2584 2243 2262 2568 2934 2552 2196 1884 1730 1577 2076 1619 1444 1510 1896 1768 1507 1631 1688 1803 1891 1579 1725 2134 2435 2854 2835 2635 2476 2337 2268 2132 2388 2387 2353 2346 2281 2218 2268 2342 2463 2261 2235 2099 2079 1933 1903 1856 1834 1753 1686 1692 1722 1762 1750 1768 1711 1506 1515 1510 1317 1386 1299 1356 1229 1309 1450 1386 1417 1408 1369 1445 1403
2130 2315 2126 2004 2355 2296 2648 2604 2485 2149 1950 1735 1861 2265 2456 2450 2012 2114 1838 2083 1950 2092 2704 1736 1451 1582 1715 1617 1374 1542 1762 1968 1805 1609 1935 2168 2291 2570 2722 2781 2508 2373 2274 2176 2308 2331 2326 2429 2387 2334 2318 2324 2315 2376 2424 2297 2151 2134 1998 1917 1804 1666 1646 1710 1722 1684 1657 1637 1610 1431 1506 1314 1334 1489 1303 1324 1348 1315 1501 1334 1319 1365 1428 1477 1464
1817 2079 2087 2083 2123 2094 2423 2475 2230 2220 1869 1483 1708 2884 2619 2216 2631 2766 2474 1953 1794 1968 2499 2010 1519 1410 1530 1474 1209 1688 1846 1904 1665 1652 1946 2191 2350 2495 2481 2720 2543 2405 2250 2153 2215 2338 2293 2328 2370 1933 2122 2282 2272 2244 2028 2265 2307 2231 2172 2051 1939 1847 1696 1742 1729 1702 1672 1581 1518 1288 1508 1366 1526 1588 1501 1718 1698 1631 1309 1463 1479 1504 1734 1698 1596
1803 1826 2535 2054 1922 1652 2080 2216 2154 2062 1629 1802 1872 2720 3261 3116 2740 3397 2926 2328 1760 1508 1732 1764 1710 1479 1298 1311 1228 1669 1786 1776 1516 1566 1877 2200 2402 2474 2425 2628 2535 2355 2275 2149 2166 2408 2431 2411 2384 2201 2028 2174 2173 2081 2141 2225 2195 2176 2177 2124 1912 1884 1814 1729 1676 1638 1636 1592 1546 1280 1271 1504 1586 1724 1764 1799 1781 1451 1642 1589 1542 1594 1783 1826 1815
2093 1822 2046 1890 1755 1865 1846 1943 2030 1979 1855 2720 3035 2794 2289 1974 1705 2030 3064 3207 2153 1577 1545 1433 1289 842 932 1098 1140 1525 1613 1572 1446 1482 1871 2185 2407 2426 2404 2530 2392 2326 2366 2246 2315 2363 2375 2452 2299 2054 2147 2201 1915 1765 1931 2103 2097 2201 2232 2157 2069 1810 1928 1851 1774 1690 1675 1630 1566 1520 1329 1474 1608 1782 1901 1943 1937 1809 1574 1649 1828 1808 1847 1886 1810
2427 2006 1924 1816 1860 1823 2046 2227 2181 2358 2060 3404 3133 2515 2080 1971 2763 1680 1842 1762 1822 1944 2213 1777 610 67 18 231 893 1329 1370 1420 1354 1522 1865 2085 2342 2394 2395 2366 2315 2202 2346 2186 2506 2314 2367 2323 2378 2462 2400 2251 2052 1998 1925 2023 2011 2132 2153 2238 2146 1973 1943 1869 1852 1840 1706 1647 1645 1591 1593 1441 1625 1821 1722 1666 1789 1682 1489 1772 1815 1798 1927 1919 1806
2560 2044 1959 1611 1835 1919 2146 2311 2651 2786 2681 3631 3140 2265 2197 2625 3266 2230 1948 2000 3069 1922 1333 791 417 9 55 439 898 1096 1169 1271 1332 1559 1758 2018 2193 2276 2329 2291 2199 2060 2732 1973 2020 2302 2337 2379 2358 2421 2414 2334 2102 2154 2112 2048 1983 1798 2111 2026 2079 1976 1931 1776 1873 1877 1865 1773 1790 1752 1706 1739 1807 1922 1982 1980 1861 1731 1718 1606 1592 1691 1683 1706 1726
2550 2198 2067 1817 1810 2064 2132 2210 3042 3037 2791 3069 2686 2179 2416 2697 2004 3474 2239 2216 2041 1871 998 855 30 0 49 440 737 872 1041 1167 1349 1497 1664 1882 2014 2102 2222 2234 2373 2856 2622 2055 2026 2039 2468 2410 2389 2452 2531 2356 2161 2073 2143 2013 1803 2032 1892 2163 2070 2055 1992 1770 1792 1909 1906 1851 1823 1873 1822 1737 1930 1819 1835 1859 1790 1654 1530 1531 1541 1633 1614 1609 1600
2431 2302 2057 2047 2050 2278 2153 2661 3106 2623 2376 3091 3032 2740 2406 2610 2225 2073 2520 2216 2081 1122 187 8 13 33 105 345 562 773 1014 1169 1266 2115 1657 1721 1760 1770 1919 2105 2480 2470 2278 2069 2082 2070 2074 2269 2478 2446 2470 2370 2281 2127 2065 2134 2088 1998 1906 1843 1838 2057 2124 1825 1804 1864 1644 1845 1699 1772 1847 1562 1664 1673 1736 1740 1695 1696 1652 1536 1500 1416 1381 1468 1529
2423 2356 2086 2780 2150 2327 2366 3120 2998 2594 2754 3102 2903 3075 2725 2550 2173 2206 2836 3018 2395 815 0 0 9 32 309 288 409 714 913 1024 1683 1441 1502 1551 1600 1786 1797 1936 2116 2257 2128 2046 2037 2097 2058 2042 2119 2226 2219 2522 2375 2235 2119 2159 2178 2026 1840 1826 1832 1714 1715 1970 1953 1869 1498 1533 1630 1661 1607 1658 1559 1645 1566 1702 1666 1619 1445 1356 1217 1249 1338 1371 1386
2508 2326 2167 2492 2467 2273 2510 3291 3042 2926 2972 2649 2448 2476 2400 2330 2184 2113 2195 1963 2905 476 0 10 0 47 380 237 459 491 703 1652 1308 1266 1365 1516 1960 1924 1676 1769 1951 2054 2069 1946 1897 1900 1903 1950 2266 2090 2154 2204 2395 2324 2316 2218 2278 2100 2164 2057 1836 1829 1719 1566 1581 1542 1578 1558 1535 1527 1563 1548 1474 1415 1499 1357 1362 1457 1454 1450 1383 1414 1355 1295 1235
2610 2261 2152 2847 2369 2291 2551 3167 2914 2821 2898 2637 2338 2456 2443 2199 2404 3031 2234 1654 1101 20 0 0 0 0 0 0 0 383 1759 1073 978 1109 1314 1484 1842 1794 1600 1682 1794 1734 1770 1824 1755 1713 1354 1797 1954 1987 2058 2041 2130 2171 2231 2152 2260 2134 1982 1894 1918 1802 1991 1567 1632 1631 1635 1600 1647 1399 1608 1644 1525 1426 1476 1394 1424 1425 1396 1467 1368 1223 1202 1162 1189
2584 2322 2118 2255 2389 2262 2582 3041 2866 2732 2701 2718 2404 3192 3329 2397 2516 2335 2429 2199 1183 250 0 0 0 0 0 0 0 0 1520 451 727 865 1018 1274 1606 1595 1531 1616 1542 1483 1562 1722 1655 1269 1310 1657 1894 1916 1931 1922 1941 1905 1934 1945 2073 2063 1953 1742 1843 1868 1868 1938 1454 1616 1667 1846 1721 1511 1586 1467 1559 1474 1460 1468 1397 1323 1350 1315 1110 1100 1138 1222 1292
2435 2470 2203 2087 2287 2479 2359 2946 2797 2815 2831 2821 3069 3029 2683 2442 2324 1856 1467 1743 2303 362 0 0 0 33 6 0 0 0 70 0 323 667 816 939 1215 1314 1377 1560 1560 1482 1456 1526 1412 1163 1235 1487 1805 1812 1778 1754 1862 1909 1890 2238 1936 2103 1926 1906 1628 1734 1727 1571 1431 1744 1581 1758 1560 1404 1404 1512 1491 1497 1416 1384 1305 1192 1102 1127 1072 1035 1063 1089 1266
2377 2467 2352 2151 2116 2375 2815 2923 2788 2866 2706 2661 2959 2812 2630 2470 2262 2125 1654 1272 1070 45 1263 0 0 0 0 0 0 0 0 0 0 5 459 738 876 930 1038 1333 1420 1436 1338 1299 1229 1190 1217 1350 1724 1843 1692 1615 1771 1909 1863 1826 2000 2177 1998 1835 1844 1809 1599 1519 1581 1653 1828 1756 1680 1630 1510 1479 1412 1338 1219 1150 1291 1340 1296 1044 955 1028 926 1172 770
2438 2388 2394 2284 2182 2194 3094 3047 3022 2985 2743 2813 2939 2874 2650 2335 2200 2100 1996 1206 1040 0 90 0 0 0 0 0 0 0 0 0 0 0 344 512 684 715 852 966 1049 1191 1340 1314 1246 1342 1263 1361 1664 1737 1596 1497 1627 1800 1802 1742 1866 2378 1823 1856 1821 1511 1619 1500 1299 1398 1576 1504 1658 1559 1470 1422 1261 1210 1234 1114 874 828 852 813 798 724 559 573 343
2482 2446 2415 2296 2267 2186 2962 3102 3102 3130 2761 2831 2950 2842 2660 2571 2238 2179 1892 1660 1363 41 0 413 100 875 5 0 0 0 0 0 0 5 0 46 98 500 693 645 643 856 1120 1138 1105 1278 1328 1334 1393 1492 1559 1370 1418 1604 1572 1400 1768 1816 1632 1587 1721 1566 1505 1386 1307 1352 1088 1383 1330 1322 1265 1063 1136 1106 976 884 763 738 845 631 640 571 282 95 256
2488 2462 2444 2406 2309 2228 2556 2925 3102 3182 3027 2739 2831 2740 2674 2692 2409 2164 1874 1529 1520 906 0 0 36 307 406 230 569 388 19 0 0 0 11 4 0 1 77 5 184 487 651 829 867 891 964 1044 1166 1362 1385 1386 1369 1347 1241 1173 2028 1698 1868 1714 1608 1461 1420 1325 1297 1238 1234 1187 1268 1175 1028 1096 1080 957 887 487 473 527 658 566 251 189 137 67 209
2416 2442 2418 2423 2391 2414 2466 2558 3010 3140 3271 2814 2677 2739 2612 2644 2338 2076 1875 1706 1712 878 0 0 0 0 98 0 516 1341 156 24 0 0 5 8 4 2 0 0 0 8 96 571 674 640 649 931 1190 1322 1321 1210 1088 1008 1069 1279 1706 1645 1788 1601 1577 1457 1374 1231 1190 1168 1169 1270 1086 1047 1016 1040 1125 710 420 39 212 95 50 128 90 5 12 134 158
2386 2376 2369 2382 2440 2522 2675 2555 2784 3046 3434 3118 2795 2802 2729 2716 2532 2231 1944 1755 1803 836 0 0 0 0 18 14 82 13 51 274 150 2 0 0 0 4 8 0 0 0 2 473 554 568 613 801 1074 1249 1250 1076 999 923 1097 1247 1401 1429 1332 1597 1672 1539 1380 1195 1170 1153 1118 1193 938 1026 1046 599 333 208 19 1 82 16 0 2 29 57 77 100 184
2417 2385 2351 2315 2363 2531 2821 2805 2843 2896 3338 3196 3028 2790 2876 2768 2521 2147 1980 1852 1911 1029 469 122 0 0 0 0 3 30 2 10 2 0 0 0 0 1 1 9 11 0 0 0 12 8 510 510 814 1279 1041 992 964 911 1005 1001 1162 1242 1448 1732 1665 1576 1362 1148 1141 866 692 621 699 529 434 50 14 4 0 0 64 45 32 53 36 82 198 381 517
2319 2404 2372 2331 2323 2486 2890 2962 3100 3098 3241 3179 3065 2959 2882 2842 2525 2237 2066 1879 1886 835 257 0 0 0 0 0 0 0 0 14 0 0 11 5 0 0 0 0 0 0 0 0 0 0 0 4 428 908 850 751 736 750 785 868 1128 1146 1541 1734 1650 1598 1356 1128 764 352 347 473 358 371 345 225 227 171 166 145 251 167 144 160 183 214 217 240 320
2130 2318 2403 2351 2325 2466 2821 3062 3239 3223 3249 3225 3090 3023 2972 2909 2622 2318 2166 1990 1773 1347 634 0 39 33 0 0 0 0 0 2 3 0 4 6 0 0 0 0 0 0 0 0 0 0 0 0 22 397 600 454 139 346 339 717 944 1272 1722 1829 1652 1528 1404 1224 907 627 468 362 383 548 475 395 385 389 377 353 328 267 260 263 308 402 479 559 647
2095 2112 2321 2382 2339 2406 2721 2916 3228 3229 3262 3268 3188 2924 2958 2900 2716 2456 2186 2043 1629 1461 1216 164 156 14 0 0 0 0 15 6 15 0 0 0 0 0 0 0 0 0 0 0 0 0 0 0 0 0 0 12 24 1 0 308 628 972 1655 1690 1566 1471 1326 1400 1166 878 868 434 402 677 801 740 621 584 553 382 332 377 493 552 550 548 403 216 133
2099 2076 2144 2333 2365 2363 2665 2766 3000 3208 3253 3292 3223 3004 2959 2940 2889 2665 2283 2216 1788 1600 1386 342 14 0 0 0 0 0 0 0 10 0 24 30 14 0 0 0 0 0 0 0 0 0 0 0 0 0 0 0 0 0 0 0 0 236 1459 415 1274 1260 1288 1281 1208 758 743 749 512 628 858 1014 898 848 913 821 822 805 806 552 154 12 175 542 929
2014 2086 2108 2247 2350 2373 2585 2751 2823 3074 3180 3194 3138 3014 2962 2956 2947 2741 2511 2411 1975 1820 1466 600 1 4 0 0 0 0 0 0 0 0 0 62 0 0 0 0 3 0 0 0 0 0 0 0 0 0 0 0 0 0 0 0 0 55 1255 80 190 998 1092 1076 1089 797 405 455 534 557 638 771 902 920 944 866 748 681 255 222 398 687 902 1121 1093
2013 2090 2138 2202 2282 2282 2440 2672 2791 2946 3084 3131 3107 3063 2927 2782 2784 2658 2598 2464 2264 2124 1698 1316 489 0 0 0 0 0 0 0 0 0 0 0 2 0 0 0 0 0 0 0 0 0 0 0 0 0 0 0 0 0 0 0 0 236 980 0 0 173 672 666 587 408 248 90 193 370 456 515 540 674 768 651 345 255 423 793 874 916 880 738 568
2066 2117 2138 2134 2239 2246 2337 2521 2699 2882 2980 3069 3100 3116 3065 2764 2700 2621 2569 2426 2408 2377 1971 1664 1366 2 2 0 6 13 0 0 0 1 0 0 0 0 0 0 0 0 0 0 0 0 0 0 0 0 0 0 0 0 1 0 40 258 424 144 0 0 2 197 96 59 0 0 0 12 122 202 186 192 226 244 338 640 824 799 802 788 735 720 694
2162 2212 2143 2097 2152 2554 2293 2444 2532 2754 2896 2941 2991 3030 3053 2818 2722 2645 2567 2502 2506 2482 2309 2082 1709 1368 142 7 0 6 6 2 17 128 192 0 0 0 0 0 0 0 0 0 0 0 0 0 0 0 0 0 0 3 0 26 118 506 284 200 0 0 0 0 0 0 0 0 0 0 0 16 42 38 30 64 202 414 606 662 684 622 565 574 437
2317 2375 2294 2184 2119 2301 2379 2436 2505 2605 2786 2853 2899 2949 2961 2818 2646 2600 2564 2555 2542 2506 2403 2193 1993 1696 1193 222 14 8 4 10 44 70 122 138 17 24 0 0 0 0 0 0 0 0 0 4 0 0 0 0 0 50 64 44 177 468 275 181 0 0 0 0 0 0 0 0 0 0 0 0 0 0 0 25 109 218 312 402 544 505 492 346 195
2310 2511 2457 2352 2240 2211 2454 2525 2581 2595 2698 2758 2799 2867 2890 2796 2581 2623 2648 2641 2568 2486 2408 2236 2066 1897 1620 1168 343 33 25 18 50 105 106 188 400 87 60 14 0 0 0 0 0 0 3 3 5 2 0 4 0 85 122 102 163 606 316 144 1 0 0 0 0 0 0 0 0 0 0 0 0 0 0 36 104 152 230 184 148 133 114 151 178
2318 2518 2625 2526 2438 2320 2382 2579 2660 2694 2705 2761 2730 2752 2782 2735 2540 2624 2633 2636 2588 2457 2353 2232 2111 2028 1853 1550 1226 698 47 41 39 58 78 100 362 480 359 83 32 16 13 13 26 22 35 14 174 59 83 33 30 40 155 144 150 248 619 202 38 0 0 0 0 0 0 0 0 0 0 0 0 0 0 21 73 139 205 201 64 9 25 37 68
2232 2401 2534 2677 2623 2525 2452 2495 2643 2734 2766 2787 2783 2702 2677 2615 2465 2462 2674 2641 2583 2511 2369 2262 2204 2144 2035 1788 1508 1264 896 119 76 59 69 70 379 447 434 355 323 123 30 103 80 158 154 51 424 646 714 192 114 55 126 156 156 264 584 414 151 17 0 0 1 64 162 7 0 0 0 0 0 0 0 3 24 43 63 78 32 0 0 0 0
2130 2359 2429 2476 2614 2642 2580 2530 2556 2661 2762 2792 2822 2776 2664 2592 2525 2450 2529 2651 2598 2521 2428 2340 2294 2265 2162 1967 1680 1505 1279 1011 576 227 92 62 428 425 460 415 406 272 151 68 65 59 68 74 57 359 688 680 522 281 88 110 176 211 468 513 275 201 164 55 70 118 216 126 0 0 0 0 0 0 0 0 1 0 0 1 0 0 0 0 0
2295 2332 2460 2487 2484 2547 2598 2602 2583 2599 2682 2775 2806 2819 2760 2648 2617 2583 2534 2565 2620 2562 2465 2387 2345 2288 2170 1996 1800 1652 1496 1338 1081 750 465 106 120 440 444 498 502 509 421 205 84 115 50 71 24 170 442 654 655 527 187 162 99 137 301 350 226 212 273 281 168 160 201 96 0 0 0 0 0 0 0 0 0 0 0 0 0 0 0 0 0
2602 2469 2462 2555 2556 2520 2510 2540 2622 2636 2645 2722 2790 2806 2819 2752 2685 2671 2667 2638 2617 2607 2568 2486 2401 2304 2193 2034 1861 1709 1586 1488 1376 1174 909 630 325 72 166 211 469 618 612 516 469 453 434 236 93 36 189 518 608 656 592 384 223 191 286 320 232 211 243 290 283 227 184 21 0 0 0 0 0 0 0 0 0 0 0 0 0 0 0 0 0
2540 2680 2565 2509 2597 2631 2577 2526 2535 2649 2702 2738 2798 2820 2841 2868 2816 2749 2741 2751 2734 2702 2655 2610 2525 2412 2256 2109 1941 1770 1627 1478 1358 1298 1158 992 788 569 157 128 183 450 612 635 569 512 454 391 96 94 13 275 527 644 614 562 347 288 346 527 495 259 213 260 292 343 332 178 24 1 0 0 0 0 0 0 0 0 0 0 0 0 0 0 0
1926 2475 2713 2598 2490 2601 2728 2709 2627 2583 2670 2774 2848 2883 2890 2925 2963 2927 2857 2801 2793 2786 2792 2752 2667 2558 2424 2248 2067 1877 1690 1537 1402 1279 1181 1104 1012 909 716 150 152 189 281 568 608 582 530 465 438 225 77 28 170 392 541 644 618 572 555 553 612 599 528 425 296 238 316 310 160 66 194 0 0 0 0 0 0 0 0 0 0 0 0 0 0
1622 1831 2347 2671 2628 2455 2511 2692 2754 2664 2574 2615 2792 2932 2964 2962 2994 3041 3016 2949 2869 2824 2815 2841 2818 2724 2597 2438 2253 2058 1859 1694 1546 1399 1247 1131 1053 977 891 783 568 264 236 378 516 588 577 519 464 438 100 140 64 122 262 530 615 653 631 581 562 550 562 525 438 240 116 204 194 114 377 0 0 0 0 0 0 0 0 0 0 0 0 0 0
1600 1633 1759 2204 2597 2640 2460 2339 2503 2662 2615 2527 2555 2779 2990 3028 3005 3030 3061 3046 2992 2916 2847 2806 2812 2826 2778 2634 2460 2271 2088 1908 1726 1566 1415 1273 1111 990 917 832 761 674 494 220 368 445 522 526 506 465 435 408 399 261 399 459 485 475 464 540 561 497 458 499 516 470 448 436 364 374 390 327 8 0 0 0 0 0 0 0 0 0 0 0 0
1721 1650 1667 1792 2121 2456 2561 2456 2324 2404 2667 2754 2648 2586 2740 2963 3038 3036 3045 3049 3036 2986 2921 2832 2756 2736 2781 2765 2642 2505 2334 2174 2013 1853 1700 1548 1388 1190 998 877 813 751 662 564 349 299 344 449 470 460 454 460 433 428 294 330 408 376 386 425 448 455 443 432 424 499 501 456 437 418 387 328 316 316 0 0 0 0 0 0 0 0 0 0 0
1947 1807 1762 1809 1954 2146 2358 2473 2409 2287 2274 2573 2888 2877 2728 2748 2883 3007 3042 3062 3046 3028 2976 2902 2803 2695 2644 2653 2663 2603 2546 2452 2317 2162 2011 1856 1724 1590 1422 1241 1035 846 725 640 586 503 420 312 436 453 468 464 451 426 435 446 440 498 460 156 204 409 429 425 422 398 423 483 469 422 440 387 335 334 307 206 0 0 0 0 0 0 0 0 0
2029 2034 1955 1899 1958 2095 2227 2360 2462 2464 2374 2288 2426 2864 3033 2951 2870 2910 3007 3058 3095 3094 3062 2997 2897 2784 2673 2588 2576 2578 2564 2527 2476 2399 2320 2204 2076 1926 1774 1621 1466 1309 1137 950 787 672 570 502 462 467 473 507 500 448 438 430 444 453 516 484 392 174 279 350 398 391 355 330 433 458 433 379 309 304 211 116 0 0 140 0 0 0 0 0 0
1951 2095 2129 2060 1990 2010 2158 2319 2425 2545 2602 2568 2450 2449 2783 3099 3166 3092 3005 3044 3075 3105 3129 3115 3065 2975 2858 2742 2648 2595 2600 2582 2541 2489 2417 2374 2333 2242 2128 1997 1861 1699 1539 1399 1286 1116 927 816 737 662 562 473 497 502 466 431 243 398 432 476 472 425 364 327 344 328 332 342 326 352 363 334 248 295 310 293 287 289 305 315 315 318 0 0 0
1864 1974 2109 2142 2103 2023 2012 2144 2323 2415 2536 2676 2749 2687 2617 2773 3070 3254 3187 3103 3071 3061 3083 3126 3128 3104 3039 2955 2865 2782 2699 2668 2640 2658 2607 2545 2455 2369 2300 2230 2153 2032 1884 1771 1680 1558 1394 1236 1096 990 888 754 708 622 535 443 404 390 344 356 378 366 363 348 329 305 297 471 366 236 312 284 288 304 338 343 328 338 335 362 383 386 226 0 0
1868 1946 2104 2175 2155 2105 2037 2001 2078 2265 2394 2496 2715 2851 2865 2824 2862 3053 3102 3087 3092 3084 3075 3085 3132 3153 3144 3099 3053 2984 2885 2797 2724 2693 2675 2660 2596 2515 2440 2369 2286 2184 2028 1930 1884 1813 1737 1606 1467 1345 1209 1107 988 910 848 709 629 570 466 371 256 247 291 313 334 343 336 484 428 317 356 311 358 358 397 398 371 375 393 444 470 422 334 0 0
1981 1953 2055 2236 2342 2318 2220 2077 2014 2128 2370 2503 2632 2816 2964 3014 3000 2995 3040 3044 3045 3076 3112 3128 3142 3183 3227 3234 3223 3183 3129 3046 2965 2868 2783 2710 2673 2619 2558 2497 2431 2332 2232 2100 2005 1910 1818 1730 1612 1506 1407 1250 1098 1077 1042 891 767 677 609 507 430 337 258 286 327 356 400 487 482 418 355 378 340 386 447 447 433 448 465 509 518 434 384 126 0
2120 2086 2082 2188 2410 2552 2560 2486 2352 2254 2322 2548 2771 2871 2991 3118 3173 3165 3118 3070 3049 3064 3120 3156 3157 3164 3177 3220 3260 3256 3222 3190 3133 3089 3007 2927 2820 2719 2677 2618 2548 2471 2412 2341 2279 2205 2151 2091 2022 1943 1854 1771 1667 1577 1482 1372 1205 1142 1013 896 755 580 415 299 299 338 390 439 592 489 402 452 414 331 446 463 461 469 488 512 490 459 406 0 0
2272 2206 2167 2164 2250 2458 2672 2761 2728 2634 2532 2492 2652 2986 3161 3231 3272 3274 3273 3221 3177 3152 3163 3184 3206 3205 3191 3083 3195 3270 3300 3304 3295 3213 3195 3144 3079 3007 2893 2811 2712 2589 2524 2488 2414 2367 2343 2321 2288 2244 2210 2160 2076 1986 1896 1797 1680 1581 1418 1266 1102 845 702 588 453 308 371 450 556 589 501 537 501 414 368 429 441 503 497 504 502 459 235 0 0
2512 2323 2292 2306 2325 2352 2453 2661 2892 2958 2920 2861 2786 2765 3122 3351 3445 3463 3427 3357 3310 3313 3309 3326 3333 3373 3489 3636 3710 3741 3737 3719 3678 3657 3614 3533 3474 3435 3334 3203 3076 2936 2810 2711 2576 2529 2542 2523 2490 2460 2418 2366 2328 2262 2214 2131 1954 1787 1632 1488 1320 1140 1000 869 758 611 428 442 500 612 537 576 529 528 430 370 403 447 411 386 317 0 0 0 0
Wind_Speed
15 16 13 15 15 15 15 16 16 16 16 17 16 16 17 17 17 17 16 17 16 17 15 15 13 12 14 13 12 9 8 8 8 7 7 7 8 11 15 15 14 15 15 14 14 14 15 15 16 16 17 18 18 17 17 17 18 18 18 17 16 15 15 14 14 13 13 13 13 13 13 13 13 12 12 13 13 13 13 13 11 9 7 6 5
14 14 14 15 15 14 14 15 16 17 17 17 16 16 18 17 18 17 16 17 17 18 16 15 14 14 12 14 12 11 9 8 7 7 6 7 8 10 15 14 15 15 16 16 15 16 16 17 18 18 19 19 19 19 19 19 19 18 18 18 17 16 16 15 15 14 14 13 14 14 13 13 13 13 13 14 15 15 16 17 14 12 10 9 8
14 14 15 15 14 14 15 15 15 17 16 17 16 17 17 18 17 17 17 18 19 18 15 16 16 16 14 15 15 12 10 6 6 6 6 8 8 8 11 15 15 16 16 17 17 18 18 18 19 19 19 19 20 21 22 22 21 20 20 19 19 18 17 17 17 16 15 15 15 15 14 14 14 14 14 15 16 17 17 18 16 15 14 14 12
14 14 14 14 14 14 15 14 17 17 16 16 16 17 17 17 17 17 18 18 18 16 17 18 18 18 16 20 17 15 12 10 8 7 7 8 9 8 9 11 16 17 18 19 18 19 18 19 19 19 19 19 20 21 22 22 23 23 22 22 21 19 18 18 18 17 17 16 16 15 15 15 15 15 14 15 17 18 17 18 17 16 17 15 13
13 14 14 14 14 13 15 16 16 17 16 15 15 15 15 15 15 16 18 16 15 16 16 17 18 18 17 21 19 19 16 12 9 8 8 9 10 9 10 11 12 17 19 20 20 19 20 19 20 20 20 20 20 21 21 22 22 23 23 23 22 21 20 19 19 19 17 16 16 15 15 15 15 16 16 17 18 16 17 18 17 15 15 15 14
12 13 13 12 13 14 15 17 15 15 14 14 13 14 15 14 15 14 15 15 16 17 16 17 17 17 22 23 21 19 17 15 12 11 10 12 11 11 12 12 13 14 15 19 20 20 20 21 21 20 19 20 21 21 22 22 22 22 23 23 23 22 21 20 19 18 17 17 16 16 16 16 16 17 17 17 17 17 17 16 15 15 15 14 13
11 11 12 12 12 14 15 16 14 13 13 13 13 14 13 14 14 15 14 15 16 17 17 17 18 nan nan 20 19 17 16 16 15 13 14 14 14 14 14 14 14 14 15 14 16 19 20 21 21 21 21 21 22 22 22 22 22 21 22 22 22 22 21 21 20 19 18 17 16 16 16 16 16 17 17 17 17 16 16 16 15 15 14 13 13
11 11 11 13 12 13 15 14 13 13 14 13 12 12 14 14 15 13 14 15 15 16 16 13 15 nan nan 17 18 17 17 17 17 17 16 15 16 16 16 15 15 14 15 13 13 15 19 20 21 22 22 23 23 23 23 23 22 22 22 21 21 21 20 19 19 18 18 17 16 16 16 16 16 16 16 16 15 14 14 14 14 14 12 12 11
11 11 11 12 12 13 13 14 13 13 14 14 13 14 14 13 14 13 14 14 15 15 16 14 nan nan nan 15 17 18 18 19 19 18 16 17 17 17 17 17 16 17 14 14 13 14 16 20 21 22 24 24 25 25 25 26 24 23 22 21 21 20 18 17 17 17 17 16 16 16 16 16 15 14 14 13 13 12 12 11 12 11 11 11 11
12 12 11 11 12 12 13 14 13 13 14 14 15 15 13 14 15 13 12 13 13 13 15 nan nan nan 12 14 17 18 20 20 20 19 17 18 17 17 18 17 17 16 15 15 14 15 15 18 22 24 26 26 27 27 28 28 27 26 24 22 22 21 18 16 17 17 16 15 15 14 14 14 13 11 11 11 10 10 10 11 10 10 10 9 9
12 13 11 10 11 12 13 14 13 14 14 15 15 15 13 14 14 12 12 14 13 14 nan nan nan nan 10 14 17 19 20 21 20 18 19 19 18 17 16 17 17 16 16 16 16 16 17 18 19 19 22 28 28 28 29 29 28 26 25 24 23 21 20 18 17 17 14 15 14 14 12 13 12 11 10 10 9 9 10 10 10 10 10 10 10
13 13 13 11 11 13 14 13 13 14 14 15 16 14 13 12 14 13 13 13 12 14 nan nan nan nan 9 10 12 16 18 19 18 19 19 19 18 16 17 17 16 16 16 16 16 17 19 19 19 20 19 23 28 28 29 29 28 27 26 25 23 23 20 20 18 17 16 16 15 14 13 12 11 13 11 9 10 10 11 11 11 11 11 10 10
12 12 14 12 11 12 13 13 14 14 14 16 16 15 13 13 13 13 14 14 14 nan nan nan nan nan nan nan nan 13 16 17 19 19 19 19 18 17 16 15 16 16 16 15 15 17 18 18 19 18 18 18 21 25 28 28 27 26 26 25 23 22 21 20 19 18 18 17 15 14 13 12 12 12 12 13 12 12 12 12 12 12 11 10 10
12 12 13 13 11 12 13 15 14 14 14 12 14 14 12 12 13 14 14 14 15 16 nan nan nan nan nan nan nan nan 10 12 16 17 17 17 18 17 16 15 16 16 15 15 15 16 16 17 17 17 18 18 18 17 19 22 23 26 26 25 24 22 21 20 18 19 19 18 16 16 15 13 13 12 12 12 12 12 12 11 11 9 8 8 8
12 12 12 14 12 11 13 13 13 12 11 12 13 14 14 14 14 15 14 14 14 15 nan nan nan nan nan nan nan nan nan nan 13 15 16 16 14 16 16 15 15 14 14 14 15 15 15 16 16 17 18 18 18 18 17 19 19 24 24 23 22 23 22 20 21 18 20 17 15 16 15 14 13 12 12 12 11 11 9 9 8 8 8 8 8
12 11 12 13 12 10 10 11 13 12 13 12 13 15 14 13 13 14 13 14 13 nan 16 nan nan nan nan nan nan nan nan nan nan nan 14 13 14 15 15 14 13 11 11 13 14 14 15 15 16 17 17 17 17 17 18 17 20 24 24 24 20 17 22 22 22 22 20 18 17 17 16 15 14 13 12 11 10 10 10 9 9 9 9 9 9
12 12 12 12 11 9 10 11 11 12 12 12 14 16 16 15 14 13 14 14 15 nan nan nan nan nan nan nan nan nan nan nan nan nan 10 10 14 14 13 12 12 11 11 12 11 13 14 15 15 15 17 17 16 18 18 18 18 18 20 23 21 17 19 21 20 19 20 19 19 18 17 16 15 14 13 13 12 11 11 11 10 10 10 10 10
11 12 12 11 11 10 9 10 10 11 12 12 13 13 14 13 15 14 15 13 12 nan nan 14 nan 14 nan nan nan nan nan nan nan nan nan nan nan 11 12 12 9 9 10 10 11 12 12 14 13 15 15 15 15 16 17 17 17 17 17 17 22 20 20 18 20 20 20 19 19 18 17 17 16 15 14 13 13 12 12 11 11 11 11 nan 12
10 11 11 11 10 10 10 10 11 11 11 10 12 14 14 13 12 12 14 12 9 13 nan nan nan 13 13 11 12 13 nan nan nan nan nan nan nan nan nan nan 8 8 9 10 11 11 11 11 12 13 13 13 13 14 15 16 17 18 19 20 21 21 21 19 20 22 21 20 19 19 18 18 17 16 15 14 14 14 14 14 14 15 15 nan 16
10 10 10 10 11 11 11 10 11 11 11 12 13 12 12 10 11 12 11 10 11 13 nan nan nan nan nan nan 12 12 12 nan nan nan nan nan nan nan nan nan nan nan nan 10 10 11 11 10 11 12 12 13 13 14 15 15 15 16 17 22 22 23 23 23 23 23 23 22 22 23 22 20 19 17 16 nan 16 nan nan 19 nan nan nan 20 21
8 9 9 10 11 11 12 12 12 13 12 12 11 12 13 12 11 10 10 10 10 11 nan nan nan nan nan nan nan nan nan 9 8 nan nan nan nan nan nan nan nan nan nan 7 8 10 11 13 12 13 13 13 14 14 15 17 17 18 19 24 25 25 25 25 25 25 24 23 24 24 25 23 20 19 nan nan nan nan nan nan nan nan nan nan 23
7 7 8 9 10 10 12 14 14 14 14 14 13 13 12 12 12 11 9 9 8 10 13 13 nan nan nan nan nan nan nan nan nan nan nan nan nan nan nan nan nan nan nan nan nan nan 11 12 13 13 13 13 14 16 16 18 18 19 21 27 27 27 27 27 27 27 26 25 25 26 26 nan nan nan nan nan nan nan nan nan nan nan 23 24 24
5 6 8 9 9 10 11 13 13 14 15 15 15 15 14 13 13 11 10 10 8 9 9 nan nan nan nan nan nan nan nan nan nan nan nan nan nan nan nan nan nan nan nan nan nan nan nan nan 13 13 14 14 15 16 18 19 20 22 27 29 29 29 29 30 29 29 27 26 27 27 28 27 25 23 23 23 23 23 24 24 24 23 24 24 24
5 4 6 7 8 9 10 11 12 14 15 15 15 15 14 14 13 13 12 11 9 8 8 nan nan nan nan nan nan nan nan nan nan nan nan nan nan nan nan nan nan nan nan nan nan nan nan nan nan 14 15 15 17 18 20 21 22 27 26 30 30 31 31 31 31 29 29 28 27 28 28 27 26 25 25 24 24 25 24 25 25 25 25 25 25
5 5 6 8 8 9 10 11 12 13 14 14 15 15 14 14 14 13 13 13 13 11 10 10 11 nan nan nan nan nan nan nan nan nan nan nan nan nan nan nan nan nan nan nan nan nan nan nan nan nan nan nan nan nan nan 22 22 25 28 26 32 32 31 31 30 30 29 30 29 28 27 27 26 25 24 25 25 25 26 26 26 25 24 23 23
7 7 7 8 8 9 10 11 11 11 12 13 14 15 15 15 14 14 15 14 13 13 12 10 nan nan nan nan nan nan nan nan nan nan nan nan nan nan nan nan nan nan nan nan nan nan nan nan nan nan nan nan nan nan nan nan nan 27 30 26 30 33 32 32 32 31 31 31 31 31 29 28 28 27 26 27 27 27 26 26 26 nan 24 25 25
6 6 6 7 8 8 9 10 10 11 11 11 12 13 14 14 14 15 15 14 15 15 13 12 nan nan nan nan nan nan nan nan nan nan nan nan nan nan nan nan nan nan nan nan nan nan nan nan nan nan nan nan nan nan nan nan nan nan 31 nan 25 32 32 33 33 33 33 33 33 34 33 32 31 31 30 30 29 29 28 28 28 27 26 26 26
4 5 6 7 8 9 10 10 11 11 11 11 11 11 13 14 14 15 16 14 15 15 15 14 13 nan nan nan nan nan nan nan nan nan nan nan nan nan nan nan nan nan nan nan nan nan nan nan nan nan nan nan nan nan nan nan nan 28 31 nan nan 27 33 35 35 35 36 nan 36 35 35 35 34 33 32 32 31 31 30 30 30 29 29 28 28
5 6 7 7 9 10 10 11 11 11 11 11 11 10 11 13 14 15 16 15 16 17 16 16 14 nan nan nan nan nan nan nan nan nan nan nan nan nan nan nan nan nan nan nan nan nan nan nan nan nan nan nan nan nan nan nan nan 27 26 26 nan nan nan 36 nan nan nan nan nan nan 36 36 36 36 35 34 34 34 34 33 32 31 31 31 31
6 7 8 9 9 11 11 12 12 11 12 12 12 11 11 11 13 14 15 15 16 16 17 17 17 15 14 nan nan nan nan nan nan 10 11 nan nan nan nan nan nan nan nan nan nan nan nan nan nan nan nan nan nan nan nan nan 27 29 26 26 nan nan nan nan nan nan nan nan nan nan nan nan nan nan nan nan 36 36 36 36 35 34 33 33 33
5 7 8 9 10 10 11 12 12 12 11 11 12 12 12 11 11 12 13 14 16 16 17 18 18 18 17 16 nan nan nan nan nan nan 11 12 nan nan nan nan nan nan nan nan nan nan nan nan nan nan nan nan nan nan nan nan 24 28 26 26 nan nan nan nan nan nan nan nan nan nan nan nan nan nan nan nan 38 38 38 39 38 37 36 36 36
5 7 8 9 10 11 11 12 12 12 12 11 11 12 13 12 12 12 13 14 15 16 16 17 17 19 19 18 17 nan nan nan nan 11 12 12 13 nan nan nan nan nan nan nan nan nan nan nan nan nan nan nan nan nan 20 20 21 28 24 26 nan nan nan nan nan nan nan nan nan nan nan nan nan nan nan nan 40 40 41 42 41 40 39 39 38
4 6 7 9 10 11 12 13 13 13 12 11 11 11 12 12 12 12 13 14 15 14 14 16 17 18 19 19 19 17 nan nan nan nan nan 13 13 14 15 nan nan nan nan nan nan nan nan nan 15 nan nan nan nan nan 21 21 21 22 24 24 nan nan nan nan nan nan nan nan nan nan nan nan nan nan nan nan nan 42 44 45 nan nan nan nan nan
4 6 8 9 10 11 12 12 13 13 13 12 11 11 11 11 12 13 13 14 14 13 14 15 17 17 18 19 19 19 17 16 nan nan nan nan 14 14 15 16 17 18 nan 19 nan 17 16 nan 13 14 14 18 18 nan 23 23 23 23 25 25 24 nan nan nan nan nan 34 nan nan nan nan nan nan nan nan nan nan nan nan nan nan nan nan nan nan
4 6 7 9 10 11 12 12 12 12 13 13 13 12 11 11 11 11 12 14 15 15 15 15 17 17 17 17 18 18 16 16 15 14 nan nan 14 15 15 16 16 17 18 nan nan nan nan nan nan 15 16 17 20 19 nan 21 22 24 26 26 27 26 27 nan nan 30 34 37 nan nan nan nan nan nan nan nan nan nan nan nan nan nan nan nan nan
5 6 7 7 8 10 11 12 12 12 13 13 13 12 12 11 10 10 10 11 13 14 16 16 16 16 18 17 17 17 17 17 15 14 14 14 15 15 16 16 17 17 19 20 nan 21 nan nan nan 20 18 19 18 17 19 20 nan 23 24 24 25 27 28 29 31 31 33 nan nan nan nan nan nan nan nan nan nan nan nan nan nan nan nan nan nan
5 5 5 6 8 9 11 12 13 13 13 13 13 12 11 10 9 9 9 9 10 12 14 15 16 18 17 18 17 16 16 16 14 14 15 16 16 nan 18 19 19 19 18 21 21 21 21 21 nan nan 21 20 20 22 24 25 23 23 23 24 27 28 28 29 30 31 34 nan nan nan nan nan nan nan nan nan nan nan nan nan nan nan nan nan nan
5 5 6 7 8 10 11 12 13 13 13 13 13 13 12 11 9 7 7 8 9 10 11 13 15 17 18 18 16 15 15 15 15 16 16 17 17 18 19 20 21 21 21 21 22 22 22 22 nan nan nan 23 21 22 26 28 28 27 26 25 25 27 29 29 30 32 33 35 nan nan nan nan nan nan nan nan nan nan nan nan nan nan nan nan nan
6 6 7 7 8 9 11 12 12 13 13 13 12 12 11 11 11 9 8 7 8 9 10 12 13 14 15 14 14 14 14 14 15 16 17 18 18 19 20 20 21 22 22 22 23 23 23 22 22 24 nan nan 27 25 26 29 28 31 32 29 26 29 32 33 32 34 35 36 38 nan 43 nan nan nan nan nan nan nan nan nan nan nan nan nan nan
6 7 7 7 7 9 10 11 11 11 11 11 12 12 11 11 11 11 10 9 8 8 9 10 11 11 12 12 13 13 14 14 15 16 17 18 18 18 19 19 20 21 21 21 22 23 23 22 22 23 26 26 nan 27 29 32 30 28 32 33 31 32 33 34 35 36 37 39 39 40 41 nan nan nan nan nan nan nan nan nan nan nan nan nan nan
4 6 6 7 7 8 9 9 10 10 10 10 10 11 11 12 11 11 11 10 9 8 8 9 10 11 12 12 13 14 16 18 21 19 20 20 18 18 18 19 20 21 20 20 21 22 22 22 21 23 24 25 27 30 32 34 36 35 36 35 31 31 33 33 34 36 38 40 39 41 43 46 nan nan nan nan nan nan nan nan nan nan nan nan nan
5 5 5 6 7 9 9 8 8 8 8 8 11 16 15 12 11 9 8 8 9 9 9 10 11 12 13 13 14 20 21 21 22 23 23 23 24 21 19 20 21 22 22 21 21 22 22 22 22 24 24 24 26 30 31 33 34 35 37 39 35 34 35 33 31 35 39 40 39 40 42 45 47 46 nan nan nan nan nan nan nan nan nan nan nan
5 5 5 6 7 7 8 8 8 7 7 7 14 15 16 18 12 8 8 8 8 9 10 11 12 13 12 13 12 14 16 17 18 22 22 23 23 24 24 24 25 26 25 24 23 24 24 23 22 24 24 23 23 27 30 31 35 37 38 39 38 38 39 37 34 33 39 43 40 38 39 45 48 47 47 47 nan nan nan nan nan nan nan nan nan
5 5 4 5 5 7 6 7 7 7 6 10 13 14 15 16 14 9 7 7 7 9 10 11 10 9 9 9 9 9 10 14 15 16 18 21 22 23 24 25 27 30 31 30 28 27 27 25 24 24 25 24 22 27 28 32 34 37 38 40 41 41 40 39 36 36 39 46 42 39 37 43 46 45 45 45 nan nan 50 nan nan nan nan nan nan
8 5 3 4 4 6 6 6 7 7 6 10 11 12 12 14 15 12 6 7 8 9 9 9 9 9 8 8 9 10 10 15 15 15 16 17 19 21 23 25 27 30 31 33 33 32 31 29 27 25 27 26 25 25 30 34 37 37 38 39 40 41 41 40 37 36 37 43 43 39 35 39 46 44 43 44 46 47 48 52 55 55 nan nan nan
7 4 3 3 2 4 5 5 5 6 6 7 9 10 10 12 13 12 8 8 8 8 9 10 11 12 13 12 12 12 13 15 16 18 18 19 20 21 22 23 25 26 29 31 33 34 33 33 32 29 28 32 29 27 31 38 41 39 40 39 41 41 41 39 38 37 37 42 42 40 34 36 43 44 42 43 47 46 48 52 55 54 54 nan nan
7 5 4 2 1 2 4 4 4 5 4 8 9 11 11 12 13 12 8 7 6 7 8 10 12 13 14 14 14 14 15 17 19 22 22 22 24 24 25 26 28 28 30 30 30 31 33 34 33 31 29 33 33 31 34 42 42 41 42 42 44 44 41 37 33 35 37 38 39 43 35 36 43 44 42 44 47 46 48 51 55 55 54 nan nan
9 8 6 4 2 1 1 3 3 3 2 7 10 12 13 13 14 8 6 6 6 7 8 10 12 13 14 15 15 15 16 17 20 25 26 26 27 26 26 26 27 29 29 30 31 33 34 34 35 33 31 33 35 35 38 42 42 41 40 40 41 43 43 40 36 38 37 38 38 44 39 37 44 46 42 44 48 46 47 49 52 54 53 53 nan
7 6 5 4 5 5 3 2 1 1 2 5 10 12 14 15 14 10 9 8 8 10 11 13 14 16 17 18 18 17 17 17 21 27 28 31 28 28 28 27 28 28 26 26 31 31 31 33 34 34 32 32 35 37 39 44 45 46 46 44 42 47 45 40 37 38 36 40 39 43 43 38 45 47 44 44 46 45 46 48 48 49 51 nan nan
7 6 8 9 9 8 6 3 2 3 3 6 11 13 16 19 19 15 13 13 12 13 14 16 17 18 19 21 21 19 18 18 22 28 30 35 30 28 29 28 27 27 24 27 35 34 34 35 35 35 33 33 34 36 38 42 47 52 51 47 48 53 45 43 39 40 39 41 40 45 45 40 47 48 47 43 43 41 45 47 48 47 47 nan nan
9 11 12 11 10 9 7 5 3 3 5 9 14 14 16 18 17 13 14 14 13 13 14 14 16 17 17 19 21 21 20 19 22 27 31 36 31 30 30 30 29 27 25 35 39 37 40 42 40 39 37 35 36 39 39 42 46 50 51 49 53 56 50 46 44 44 41 37 41 49 47 45 50 47 52 49 44 41 45 49 49 nan nan nan nan
Wind_Direction
66 66 64 62 61 59 55 55 59 64 68 70 65 63 62 62 65 64 62 67 67 65 60 58 54 39 42 47 41 33 33 33 27 29 36 33 35 32 25 32 35 37 39 39 31 29 29 28 29 27 25 27 26 26 22 19 20 20 21 19 19 21 21 21 23 25 26 24 24 29 29 31 31 32 35 38 37 37 34 29 28 34 39 42 44
62 64 60 61 59 58 58 60 62 65 66 67 67 62 60 61 61 56 55 61 66 67 58 56 52 47 32 43 37 23 26 25 28 33 36 37 43 46 26 35 39 41 43 42 35 33 31 30 30 31 32 30 27 25 30 25 23 24 26 23 22 24 29 27 29 31 32 31 33 36 35 35 37 39 40 43 45 46 46 45 52 66 84 94 90
59 60 62 61 61 61 64 67 70 68 62 62 63 60 59 56 54 55 56 54 56 62 55 51 53 49 33 37 26 16 22 25 30 38 36 42 48 55 45 36 42 44 47 46 41 40 37 36 35 36 37 36 33 29 32 30 29 26 28 28 28 28 32 30 32 31 32 34 37 39 37 39 40 42 43 45 48 52 53 55 54 60 65 73 80
60 59 59 62 66 66 70 70 70 67 60 59 58 60 57 57 57 54 52 49 52 52 51 51 55 49 26 33 28 21 21 28 36 41 44 50 50 57 58 56 45 46 49 51 48 46 46 44 43 43 41 40 38 35 33 33 32 33 29 31 33 33 33 33 34 35 36 36 39 41 38 41 42 44 47 51 50 53 58 61 58 56 66 72 70
61 55 59 64 68 69 71 70 65 64 63 61 59 60 59 59 61 62 60 56 55 56 57 63 63 55 27 37 29 27 29 34 43 50 53 56 56 55 58 64 63 52 52 55 53 53 50 51 51 49 47 44 42 41 39 37 36 36 36 35 34 36 36 36 37 38 40 42 43 43 43 42 40 45 45 47 50 48 41 50 55 59 60 60 62
61 64 64 69 70 67 66 67 63 62 62 63 59 55 55 61 69 67 67 62 61 60 63 71 64 52 35 34 32 33 38 44 53 59 63 63 62 61 60 63 64 67 67 57 56 57 56 54 55 56 53 52 49 46 44 44 42 40 41 41 40 40 40 41 42 44 43 44 45 45 45 45 40 44 43 45 44 45 45 43 43 48 49 50 50
73 63 69 70 68 67 67 67 65 62 63 62 57 62 62 64 69 64 65 64 59 58 58 61 60 nan nan 35 36 39 47 55 61 64 67 68 68 67 64 63 65 70 71 69 63 58 59 57 57 58 57 57 56 55 53 50 49 46 45 45 45 46 45 45 46 48 48 47 48 47 47 46 42 44 45 44 43 41 37 41 40 41 43 45 45
83 73 66 69 66 65 66 69 64 59 56 57 57 56 68 68 67 57 58 59 56 61 59 61 68 nan nan 43 41 43 49 56 62 67 69 72 70 69 70 71 72 72 72 75 74 72 62 62 59 58 58 59 59 59 59 59 57 53 52 50 50 52 51 50 51 51 51 50 52 53 53 52 49 47 46 45 44 43 41 41 36 41 43 45 47
85 80 70 69 68 65 67 61 59 52 50 54 52 54 61 69 68 53 46 49 54 65 78 62 nan nan nan 50 47 48 51 53 60 64 68 70 72 74 76 78 79 72 79 77 79 77 70 64 62 60 60 61 61 60 61 62 62 59 56 54 56 58 57 57 55 57 58 55 55 56 54 55 55 54 53 50 49 48 47 45 44 47 48 51 56
81 79 75 71 65 61 61 60 54 52 48 50 52 55 56 57 62 57 42 43 52 64 69 nan nan nan 50 45 51 52 52 54 58 61 63 68 74 74 77 80 81 81 80 80 78 77 80 71 65 63 62 61 60 61 61 62 63 61 58 59 60 59 57 60 62 62 64 64 62 64 67 65 65 67 66 65 66 65 60 50 50 52 54 57 57
76 74 71 70 62 60 55 55 52 51 46 49 48 49 50 52 52 54 47 44 52 66 nan nan nan nan 47 41 45 48 51 55 57 59 63 66 72 76 80 80 80 80 78 76 74 72 72 76 75 73 68 60 58 56 57 58 60 63 61 59 59 61 63 58 56 61 59 73 73 71 72 77 68 65 70 76 75 72 64 56 59 57 58 57 59
71 71 67 64 60 56 52 53 48 47 45 45 47 47 42 46 50 46 48 52 55 57 nan nan nan nan 69 62 54 45 48 53 54 57 60 65 69 76 77 80 81 82 79 77 73 71 67 67 70 69 71 67 59 55 53 53 53 54 57 56 57 59 49 58 56 59 61 55 58 61 59 62 61 59 54 50 53 52 52 56 55 58 59 58 57
70 67 65 62 58 54 51 52 49 47 44 45 47 45 46 40 42 46 46 54 60 nan nan nan nan nan nan nan nan 69 49 46 49 54 59 62 64 68 78 77 78 78 78 76 75 73 71 69 67 65 66 70 68 62 57 54 51 51 50 50 50 50 52 48 46 44 46 47 48 51 51 44 43 47 42 39 42 43 46 43 45 47 47 43 43
64 63 65 61 54 49 48 46 45 44 46 46 46 45 42 39 37 44 53 53 61 57 nan nan nan nan nan nan nan nan 63 51 54 58 59 63 63 66 73 69 70 72 71 67 69 67 67 66 68 65 62 60 63 68 65 60 55 50 48 48 46 45 46 45 45 42 40 40 38 42 39 37 38 39 37 39 42 47 45 42 43 41 41 42 38
59 58 60 64 54 45 44 44 41 38 37 38 42 40 39 36 32 35 48 53 56 58 nan nan nan nan nan nan nan nan nan nan 64 61 63 65 69 68 69 69 65 65 62 62 60 62 60 58 58 58 57 53 52 54 55 56 50 49 46 48 46 43 41 36 40 38 41 38 37 35 32 31 29 30 33 37 39 41 37 36 39 35 36 36 30
55 54 57 59 56 45 41 39 38 37 32 29 36 38 40 38 35 37 35 45 53 nan 53 nan nan nan nan nan nan nan nan nan nan nan 59 67 67 69 72 71 69 69 63 59 59 57 56 52 51 50 49 46 44 40 38 39 43 43 37 38 39 36 36 35 31 30 32 31 25 25 24 23 23 24 27 22 21 20 24 27 21 24 25 23 14
52 49 49 49 54 45 35 34 31 34 33 28 30 34 35 33 31 33 34 32 42 nan nan nan nan nan nan nan nan nan nan nan nan nan 72 62 73 75 76 73 68 63 60 63 63 56 52 52 48 44 43 39 36 33 30 30 32 33 29 28 23 23 30 32 29 24 22 20 17 15 14 13 14 11 13 11 12 15 12 9 12 16 17 15 13
50 46 44 45 46 41 36 26 30 29 30 30 30 31 36 33 33 31 36 37 29 nan nan 48 nan 43 nan nan nan nan nan nan nan nan nan nan nan 70 69 69 72 64 63 60 56 54 51 50 46 42 37 33 29 26 24 22 22 18 11 19 18 16 18 20 19 19 18 15 12 9 7 9 5 5 7 5 3 4 3 3 7 8 8 nan 6
46 43 40 39 40 39 36 29 27 27 28 24 27 30 32 34 32 33 36 32 22 31 nan nan nan 51 45 42 52 59 nan nan nan nan nan nan nan nan nan nan 53 53 54 51 49 45 50 50 46 42 37 30 23 20 18 17 11 7 8 10 13 11 10 5 13 15 10 9 3 4 6 3 3 4 1 2 1 0 2 2 4 4 3 nan 2
36 38 33 33 33 35 35 30 24 26 22 25 27 28 29 32 29 34 34 31 21 23 nan nan nan nan nan nan 54 60 52 nan nan nan nan nan nan nan nan nan nan nan nan 42 42 37 36 43 39 35 27 23 17 14 14 10 5 3 5 8 7 8 7 6 11 11 6 5 5 5 3 1 1 1 1 nan 3 nan nan 2 nan nan nan 3 2
41 31 30 30 32 31 29 28 25 24 21 23 24 21 22 21 27 35 33 36 25 31 nan nan nan nan nan nan nan nan nan 55 37 nan nan nan nan nan nan nan nan nan nan 43 40 33 27 24 24 21 18 16 10 9 9 5 2 359 2 5 3 4 2 4 8 10 9 8 5 5 4 2 1 2 nan nan nan nan nan nan nan nan nan nan 3
50 38 26 27 30 28 27 26 25 23 19 20 17 17 19 19 19 24 28 33 36 26 22 20 nan nan nan nan nan nan nan nan nan nan nan nan nan nan nan nan nan nan nan nan nan nan 22 13 12 13 11 10 7 4 3 5 1 358 359 1 360 359 359 3 7 8 9 9 7 6 4 nan nan nan nan nan nan nan nan nan nan nan 3 3 4
46 43 27 20 23 25 25 25 22 21 17 15 18 15 13 15 13 14 17 21 25 28 24 nan nan nan nan nan nan nan nan nan nan nan nan nan nan nan nan nan nan nan nan nan nan nan nan nan 4 7 5 5 4 2 3 6 4 0 357 356 356 356 358 2 4 8 8 10 10 8 7 5 5 5 5 5 5 4 3 1 1 1 2 3 3
43 35 27 15 12 19 20 16 17 17 16 13 17 15 11 10 9 7 12 11 9 15 9 nan nan nan nan nan nan nan nan nan nan nan nan nan nan nan nan nan nan nan nan nan nan nan nan nan nan 6 4 2 4 6 4 3 5 5 357 359 358 0 3 6 8 12 11 11 11 11 10 9 9 8 7 7 6 5 3 3 2 3 3 3 2
30 23 20 5 0 3 7 8 11 13 13 8 12 12 11 10 11 9 7 4 5 6 3 9 8 nan nan nan nan nan nan nan nan nan nan nan nan nan nan nan nan nan nan nan nan nan nan nan nan nan nan nan nan nan nan 7 8 10 6 8 10 12 14 15 15 17 16 13 13 13 13 13 10 9 7 7 7 6 5 4 3 2 2 359 357
6 15 5 355 352 356 357 2 0 360 5 6 5 8 8 10 11 12 10 7 1 4 6 5 nan nan nan nan nan nan nan nan nan nan nan nan nan nan nan nan nan nan nan nan nan nan nan nan nan nan nan nan nan nan nan nan nan 19 15 14 20 19 18 19 19 19 20 19 18 18 19 18 17 13 8 6 5 4 1 0 1 nan 359 355 353
2 360 338 346 349 341 347 350 351 351 352 356 358 360 3 4 8 12 10 6 7 4 5 360 nan nan nan nan nan nan nan nan nan nan nan nan nan nan nan nan nan nan nan nan nan nan nan nan nan nan nan nan nan nan nan nan nan nan 21 nan 21 23 21 21 21 22 23 23 22 22 21 21 20 19 14 9 6 5 3 0 358 357 355 352 349
335 316 334 334 332 335 336 341 339 341 342 345 346 348 352 355 1 3 8 5 8 9 9 2 6 nan nan nan nan nan nan nan nan nan nan nan nan nan nan nan nan nan nan nan nan nan nan nan nan nan nan nan nan nan nan nan nan 24 23 nan nan 24 24 24 25 25 26 nan 26 25 24 24 23 21 18 14 10 6 3 359 357 355 353 351 348
310 317 325 324 324 324 327 327 328 332 333 334 336 338 337 343 349 355 1 359 1 9 8 7 9 nan nan nan nan nan nan nan nan nan nan nan nan nan nan nan nan nan nan nan nan nan nan nan nan nan nan nan nan nan nan nan nan 19 20 19 nan nan nan 24 nan nan nan nan nan nan 25 25 24 23 21 17 13 8 5 2 358 356 353 349 349
310 311 317 323 320 322 321 323 322 323 329 326 326 329 325 329 336 344 350 347 354 358 4 6 8 3 3 nan nan nan nan nan nan 18 10 nan nan nan nan nan nan nan nan nan nan nan nan nan nan nan nan nan nan nan nan nan 18 15 15 15 nan nan nan nan nan nan nan nan nan nan nan nan nan nan nan nan 11 9 6 4 0 358 355 351 350
304 310 316 322 320 320 320 322 319 323 321 322 319 319 320 319 318 327 333 339 346 351 355 357 2 360 4 8 nan nan nan nan nan nan 15 7 nan nan nan nan nan nan nan nan nan nan nan nan nan nan nan nan nan nan nan nan 12 11 9 8 nan nan nan nan nan nan nan nan nan nan nan nan nan nan nan nan 6 5 5 3 3 1 358 354 352
312 318 319 323 323 324 323 323 322 322 321 319 315 314 312 315 312 316 322 330 340 348 348 349 350 356 1 7 9 nan nan nan nan 7 10 5 1 nan nan nan nan nan nan nan nan nan nan nan nan nan nan nan nan nan 8 6 6 10 3 3 nan nan nan nan nan nan nan nan nan nan nan nan nan nan nan nan 3 2 359 1 3 3 360 357 354
311 316 321 326 325 327 324 322 324 322 321 321 312 308 310 314 314 316 315 323 335 342 339 344 347 350 358 3 8 10 nan nan nan nan nan 360 352 359 2 nan nan nan nan nan nan nan nan nan 355 nan nan nan nan nan 0 360 358 360 0 359 nan nan nan nan nan nan nan nan nan nan nan nan nan nan nan nan nan 359 357 359 nan nan nan nan nan
326 331 326 318 321 324 324 324 322 322 321 321 316 310 314 318 321 310 313 320 329 337 335 343 347 349 352 358 4 6 1 4 nan nan nan nan 349 350 355 355 359 357 nan 349 nan 359 15 nan 351 349 346 342 354 nan 354 354 357 351 355 355 352 nan nan nan nan nan 4 nan nan nan nan nan nan nan nan nan nan nan nan nan nan nan nan nan nan
335 337 334 329 325 324 325 324 322 320 321 320 317 318 322 326 328 322 318 321 327 333 339 348 350 348 350 354 1 358 352 359 4 2 nan nan 344 346 349 344 350 349 347 nan nan nan nan nan nan 348 347 341 347 348 nan 350 349 346 350 352 351 348 348 nan nan 348 355 359 nan nan nan nan nan nan nan nan nan nan nan nan nan nan nan nan nan
339 339 337 339 329 326 328 327 327 327 324 322 320 322 329 331 333 334 328 326 327 334 340 345 347 347 354 353 356 353 348 354 359 356 351 344 344 344 343 342 343 347 342 340 nan 343 nan nan nan 344 341 340 345 340 337 340 nan 340 343 344 340 343 345 343 343 343 346 nan nan nan nan nan nan nan nan nan nan nan nan nan nan nan nan nan nan
342 333 336 330 331 331 333 337 335 333 334 330 328 328 327 327 333 336 337 334 336 339 340 342 342 347 351 354 355 346 343 348 349 348 349 349 347 nan 347 344 345 345 340 341 345 340 339 345 nan nan 331 334 333 334 332 335 337 336 332 338 339 339 340 341 338 339 342 nan nan nan nan nan nan nan nan nan nan nan nan nan nan nan nan nan nan
340 340 343 328 327 336 341 343 339 339 336 334 335 335 333 329 330 335 338 340 343 342 341 341 342 344 349 355 355 349 347 347 348 346 347 356 354 352 351 348 346 342 345 344 341 342 342 346 nan nan nan 331 329 330 326 329 331 331 330 332 329 330 331 334 335 334 331 331 nan nan nan nan nan nan nan nan nan nan nan nan nan nan nan nan nan
349 341 339 338 327 331 342 341 343 344 343 338 336 337 336 334 338 342 349 352 348 339 340 345 346 348 355 360 3 2 360 355 351 349 350 355 357 2 358 355 350 345 347 344 341 343 342 342 338 332 nan nan 332 334 323 323 328 327 328 329 334 329 326 331 334 330 329 331 333 nan 337 nan nan nan nan nan nan nan nan nan nan nan nan nan nan
353 345 336 336 334 335 341 341 348 345 342 337 337 339 341 343 344 352 358 360 2 355 353 358 7 15 19 19 19 16 13 6 1 0 356 0 360 4 1 354 352 351 350 344 341 343 342 340 341 334 327 334 nan 327 317 318 324 324 327 330 338 332 330 329 331 330 329 329 331 330 333 nan nan nan nan nan nan nan nan nan nan nan nan nan nan
322 334 333 334 337 343 343 344 352 349 342 341 336 340 346 352 355 6 10 14 21 29 33 34 34 35 36 35 34 30 25 25 21 17 12 7 1 5 2 351 353 350 348 343 343 340 339 339 341 328 325 329 331 326 326 327 331 335 324 325 333 329 327 328 330 329 328 328 331 330 329 329 nan nan nan nan nan nan nan nan nan nan nan nan nan
315 316 326 337 342 342 342 350 356 349 342 335 356 7 3 358 5 16 23 29 34 42 48 51 51 46 45 44 43 39 34 29 26 23 20 15 12 5 357 344 346 341 341 342 340 336 335 338 339 331 330 337 332 325 326 328 323 316 316 321 331 329 318 325 324 326 326 326 328 332 329 325 328 329 nan nan nan nan nan nan nan nan nan nan nan
314 314 322 342 341 333 340 351 3 354 344 347 11 10 14 18 12 15 27 37 37 42 49 54 55 52 51 47 44 36 29 25 21 20 16 13 9 8 7 355 343 339 336 339 340 333 331 334 333 326 330 338 331 318 320 319 312 316 319 319 325 319 321 323 330 318 319 323 328 328 328 323 323 327 327 330 nan nan nan nan nan nan nan nan nan
293 289 319 345 338 327 325 350 2 355 359 16 14 11 14 16 13 13 21 36 41 45 48 47 47 43 43 38 29 18 8 7 6 3 5 7 4 2 1 358 351 347 343 339 338 332 329 331 332 332 330 332 325 315 316 310 312 311 316 317 319 319 318 321 323 325 314 318 323 324 329 318 320 325 326 329 nan nan 333 nan nan nan nan nan nan
264 282 321 335 344 330 328 350 2 359 11 27 17 11 9 10 13 15 23 28 34 39 33 27 21 13 10 9 8 358 354 5 356 349 341 342 349 355 355 354 353 348 346 351 350 339 326 328 331 336 333 327 325 325 317 314 310 315 316 316 317 316 319 321 324 322 313 317 317 320 326 321 317 322 327 327 327 330 331 333 338 340 nan nan nan
265 284 301 338 349 332 335 348 360 4 21 32 12 8 5 9 13 8 28 26 23 23 13 5 356 354 354 351 350 348 338 334 332 332 330 330 324 324 330 332 335 341 345 352 354 348 337 329 329 336 334 321 327 327 316 309 313 320 317 320 317 317 321 326 327 324 311 311 318 314 319 318 314 318 325 325 323 327 327 329 336 339 339 nan nan
259 270 280 287 325 342 338 348 359 14 20 19 355 1 3 5 12 2 17 15 12 5 358 348 344 342 340 336 336 336 327 324 321 319 319 320 318 321 326 329 331 331 333 339 338 328 327 329 330 332 329 321 324 325 315 311 320 320 319 321 320 321 322 316 309 307 306 313 312 308 319 313 310 315 322 321 319 325 323 325 333 336 338 nan nan
231 232 234 234 220 207 306 330 355 27 9 358 347 352 356 357 354 337 351 1 6 1 350 335 329 327 326 326 324 324 322 321 321 323 318 310 311 319 323 323 321 322 329 338 335 327 328 327 326 327 323 320 320 319 317 314 314 314 312 311 307 306 307 309 315 309 311 307 310 309 310 310 308 314 317 316 317 323 321 319 326 333 334 337 nan
239 239 242 244 225 212 218 251 326 341 301 331 336 342 344 342 323 329 337 338 346 352 348 332 325 325 322 320 318 315 315 316 315 315 316 313 311 316 317 318 315 317 329 325 318 323 328 329 330 331 331 325 322 322 320 320 315 310 307 309 313 304 305 310 312 308 309 302 306 308 308 310 306 310 313 313 318 322 320 319 319 327 333 nan nan
247 236 231 225 223 219 220 223 252 251 257 280 312 324 331 332 330 327 322 322 331 331 328 322 317 316 322 334 328 319 317 313 313 315 316 311 311 315 314 315 316 323 332 312 295 303 317 321 323 325 325 324 322 319 316 315 316 310 308 314 309 302 307 308 309 305 300 301 306 305 303 310 301 305 309 305 309 315 317 316 317 320 327 nan nan
254 239 232 227 224 224 225 227 247 246 231 259 296 313 325 328 324 305 299 299 308 312 307 308 309 312 314 319 331 327 322 320 320 317 318 313 312 315 314 313 322 330 330 298 301 304 301 301 305 307 308 314 312 308 309 314 311 310 310 311 304 302 304 304 303 296 294 300 301 301 303 301 298 301 303 302 309 310 311 313 314 nan nan nan nan